Warsaw, Poland

2:06 PM CEST on September 22, 2017 (GMT +0200)
Okecie

Weather History for EPWA - September, 2013

Change the Weather History Date:

Monday, September 30, 2013

  Actual Average Record
Temperature  
Mean Temperature 45 °F -  
Max Temperature 55 °F 55 °F 71 °F (2006)
Min Temperature 35 °F 40 °F 35 °F (2013)
Degree Days  
Heating Degree Days 20    
Moisture  
Dew Point 39 °F    
Average Humidity 77    
Maximum Humidity 100    
Minimum Humidity 43    
Precipitation  
Precipitation 0.00 in 0.05 in - ()
Sea Level Pressure  
Sea Level Pressure 30.09 in    
Wind  
Wind Speed 4 mph ()    
Max Wind Speed 12 mph    
Max Gust Speed -    
Visibility 7.7 miles    
Events Fog    
Averages and records for this station are not official NWS values.
T = Trace of Precipitation, MM = Missing Value Source: Averaged Metar Reports

Daily Weather History Graph

Daily Weather History Graph

Search for Another Location

Airport or City:

Trip Planner

Search our weather history database for the weather conditions in past years. The results will help you decide how hot, cold, wet, or windy it might be!

Date:

Astronomy

Sep. 30, 2013 Rise Set
Actual Time 6:35 AM CEST 6:15 PM CEST
Civil Twilight 6:01 AM CEST 6:49 PM CEST
Nautical Twilight 5:22 AM CEST 7:28 PM CEST
Astronomical Twilight 4:41 AM CEST 8:09 PM CEST
Moon 1:25 AM CEST (9/30) 4:01 PM CEST (9/30)
Length of Visible Light 12h 47m
Length of Day
11h 40m
Waning Crescent, 21% of the Moon is Illuminated
Sep 30
Waning Crescent
Oct 5
New
Oct 12
First Quarter
Oct 19
Full
Oct 27
Last Quarter

Hourly Weather History & Observations

Time (CEST) Temp. Windchill Dew Point Humidity Pressure Visibility Wind Dir Wind Speed Gust Speed Precip Events Conditions
12:00 AM 41.0 °F - 39.2 °F 93% 30.12 in 6.2 mi ENE 2.3 mph - N/A Fog Shallow Fog
12:30 AM 41.0 °F - 39.2 °F 93% 30.12 in 6.2 mi Variable 1.2 mph - N/A Fog Shallow Fog
1:00 AM 41.0 °F - 39.2 °F 93% 30.12 in 6.2 mi NE 1.2 mph - N/A Fog Shallow Fog
1:30 AM 39.2 °F 35.9 °F 39.2 °F 100% 30.12 in 6.2 mi NNE 4.6 mph - N/A Fog Shallow Fog
2:00 AM 40 °F - 39 °F 97% 30.16 in 9 mi Calm Calm - - Fog Patches of Fog
2:00 AM 41.0 °F 39.0 °F 39.2 °F 93% 30.12 in 6.2 mi NNE 3.5 mph - N/A Fog Shallow Fog
2:30 AM 41.0 °F - 39.2 °F 93% 30.12 in 6.2 mi NE 2.3 mph - N/A Fog Shallow Fog
3:00 AM 39.2 °F - 37.4 °F 93% 30.12 in 6.2 mi NE 2.3 mph - N/A Fog Shallow Fog
3:30 AM 39.2 °F 37.0 °F 37.4 °F 93% 30.12 in 6.2 mi NE 3.5 mph - N/A Fog Shallow Fog
4:00 AM 37.4 °F 34.9 °F 37.4 °F 100% 30.09 in 6.2 mi NE 3.5 mph - N/A Fog Shallow Fog
4:30 AM 39.2 °F 37.0 °F 37.4 °F 93% 30.09 in 6.2 mi NNE 3.5 mph - N/A Fog Shallow Fog
5:00 AM 39 °F - 38 °F 95% 30.14 in 6 mi Calm Calm - - Fog Patches of Fog
5:00 AM 37.4 °F 33.8 °F 37.4 °F 100% 30.09 in 6.2 mi NE 4.6 mph - N/A Fog Shallow Fog
5:30 AM 37.4 °F 33.8 °F 37.4 °F 100% 30.09 in 6.2 mi NE 4.6 mph - N/A Fog Shallow Fog
6:00 AM 35.6 °F 31.7 °F 35.6 °F 100% 30.09 in 6.2 mi NNE 4.6 mph - N/A Fog Shallow Fog
6:30 AM 35.6 °F 31.7 °F 35.6 °F 100% 30.09 in 6.2 mi NNE 4.6 mph - N/A Fog Shallow Fog
7:00 AM 37.4 °F - 35.6 °F 93% 30.09 in 6.2 mi Variable 2.3 mph - N/A Fog Shallow Fog
7:30 AM 39.2 °F - 37.4 °F 93% 30.09 in - NE 1.2 mph - N/A   Clear
8:00 AM 41 °F - 39 °F 92% 30.13 in 9 mi Calm Calm - -  
8:00 AM 41.0 °F 38.0 °F 39.2 °F 93% 30.09 in - ENE 4.6 mph - N/A   Clear
8:30 AM 42.8 °F - 41.0 °F 93% 30.09 in - Variable 2.3 mph - N/A   Clear
9:00 AM 44.6 °F - 41.0 °F 87% 30.09 in - Variable 2.3 mph - N/A   Clear
9:30 AM 46.4 °F 44.3 °F 41.0 °F 81% 30.12 in - ESE 4.6 mph - N/A   Clear
10:00 AM 48.2 °F - 41.0 °F 76% 30.12 in - ENE 4.6 mph - N/A   Clear
10:30 AM 50.0 °F - 41.0 °F 71% 30.12 in - East 4.6 mph - N/A   Clear
11:00 AM 52 °F - 40 °F 52% 30.14 in 19 mi East 6.7 mph - -   Scattered Clouds
11:00 AM 51.8 °F - 41.0 °F 67% 30.09 in 6.2 mi ENE 5.8 mph - N/A   Partly Cloudy
11:30 AM 51.8 °F - 39.2 °F 62% 30.09 in 6.2 mi ENE 5.8 mph - N/A   Scattered Clouds
12:00 PM 51.8 °F - 39.2 °F 62% 30.09 in 6.2 mi East 4.6 mph - N/A   Scattered Clouds
12:30 PM 51.8 °F - 39.2 °F 62% 30.09 in 6.2 mi NNE 6.9 mph - N/A   Scattered Clouds
1:00 PM 55.4 °F - 41.0 °F 58% 30.09 in 6.2 mi NE 8.1 mph - N/A   Scattered Clouds
1:30 PM 51.8 °F - 39.2 °F 62% 30.09 in 6.2 mi ENE 6.9 mph - N/A   Scattered Clouds
2:00 PM 53 °F - 38 °F 47% 30.09 in 19 mi ENE 6.7 mph - -   Mostly Cloudy
2:00 PM 53.6 °F - 39.2 °F 58% 30.06 in 6.2 mi East 6.9 mph - N/A   Scattered Clouds
2:30 PM 53.6 °F - 39.2 °F 58% 30.06 in - ENE 6.9 mph - N/A   Clear
3:00 PM 53.6 °F - 37.4 °F 54% 30.06 in 6.2 mi NE 9.2 mph - N/A   Scattered Clouds
3:30 PM 55.4 °F - 39.2 °F 54% 30.06 in - NNE 6.9 mph - N/A   Clear
4:00 PM 53.6 °F - 37.4 °F 54% 30.06 in - Variable 2.3 mph - N/A   Clear
4:30 PM 53.6 °F - 39.2 °F 58% 30.06 in 6.2 mi East 8.1 mph - N/A   Scattered Clouds
5:00 PM 53 °F - 37 °F 43% 30.07 in 19 mi ENE 8.9 mph - -   Partly Cloudy
5:00 PM 53.6 °F - 37.4 °F 54% 30.06 in - ENE 9.2 mph - N/A   Clear
5:30 PM 51.8 °F - 37.4 °F 58% 30.06 in - ENE 5.8 mph - N/A   Clear
6:00 PM 51.8 °F - 39.2 °F 62% 30.06 in - NE 9.2 mph - N/A   Clear
6:30 PM 50.0 °F - 39.2 °F 66% 30.06 in - NE 6.9 mph - N/A   Clear
7:00 PM 48.2 °F - 39.2 °F 71% 30.06 in - NE 6.9 mph - N/A   Clear
7:30 PM 48.2 °F - 39.2 °F 71% 30.06 in - NE 6.9 mph - N/A   Clear
8:00 PM 47 °F - 38 °F 63% 30.09 in 12 mi ENE 6.7 mph - -   Scattered Clouds
8:00 PM 46.4 °F 42.4 °F 39.2 °F 76% 30.06 in 6.2 mi ENE 8.1 mph - N/A   Partly Cloudy
8:30 PM 46.4 °F 41.9 °F 39.2 °F 76% 30.06 in 6.2 mi NE 9.2 mph - N/A   Partly Cloudy
9:00 PM 46.4 °F 41.5 °F 41.0 °F 81% 30.06 in 6.2 mi NE 10.4 mph - N/A   Partly Cloudy
9:30 PM 44.6 °F 39.2 °F 39.2 °F 81% 30.06 in 6.2 mi ENE 10.4 mph - N/A   Partly Cloudy
10:00 PM 44.6 °F 38.8 °F 39.2 °F 81% 30.06 in - ENE 11.5 mph - N/A   Clear
10:30 PM 44.6 °F 39.2 °F 39.2 °F 81% 30.06 in - ENE 10.4 mph - N/A   Clear
11:00 PM 44 °F - 39 °F 76% 30.09 in 12 mi ENE 8.9 mph - -   Clear
11:00 PM 42.8 °F 37.0 °F 39.2 °F 87% 30.06 in - ENE 10.4 mph - N/A   Clear
11:30 PM 42.8 °F 36.6 °F 39.2 °F 87% 30.06 in - ENE 11.5 mph - N/A   Clear